Theta_e
340 344 348 349 350 350 351 350 346 339 339 346 343 350 349 346 344 344 348 347 347 349 348 349 351 351 352 352 352 352 351 351 351 351 350 349 349 350 350 349 344 346 348
338 344 346 350 351 351 351 348 344 334 343 349 348 351 345 343 346 349 348 345 349 348 351 351 350 352 352 353 353 352 351 351 351 352 351 349 350 348 347 348 345 344 347
339 344 347 348 350 352 350 347 346 342 348 348 348 346 347 350 348 350 349 349 350 351 351 351 352 352 353 352 352 350 351 351 351 350 345 346 347 349 348 349 345 344 341
339 344 347 346 351 352 351 351 349 348 350 347 350 349 347 349 346 350 351 350 349 350 350 351 351 352 351 351 349 347 351 350 349 346 346 346 345 344 348 348 345 348 347
343 345 346 348 350 351 351 351 349 351 350 347 351 349 349 351 352 351 351 350 350 349 350 351 351 351 349 347 349 348 349 349 345 344 345 344 344 348 347 348 342 344 345
345 345 349 350 349 348 352 351 351 351 351 350 351 351 351 352 349 351 349 350 350 349 351 350 351 351 350 348 348 346 350 345 341 343 345 346 347 347 348 347 342 341 342
347 346 347 348 350 350 351 351 351 351 351 350 349 351 351 352 351 351 350 349 348 349 349 348 350 346 346 346 350 348 345 344 342 345 347 347 345 346 348 347 341 339 338
346 345 349 349 349 349 347 351 350 351 350 350 351 352 350 350 351 350 350 349 349 347 347 349 349 346 347 349 346 347 346 342 343 342 341 343 338 348 348 341 346 346 345
345 350 351 351 352 351 351 351 351 351 350 350 351 349 348 351 350 351 350 349 348 348 348 348 345 346 346 347 347 349 345 339 340 342 344 346 344 348 343 344 345 342 342
348 347 349 349 350 351 352 352 352 351 351 351 350 350 350 350 351 351 347 349 349 348 348 347 345 345 344 347 345 345 343 340 341 342 338 341 344 347 347 346 344 345 338
350 349 349 352 351 349 350 352 352 351 351 351 351 349 349 348 350 349 349 350 349 348 347 343 342 343 344 345 344 345 346 341 340 341 342 344 345 348 346 344 343 340 344
351 350 350 347 347 349 351 351 350 348 347 349 348 348 345 345 345 347 350 350 349 348 344 336 339 341 343 342 343 347 346 344 339 340 342 344 345 345 346 338 338 341 340
349 350 348 346 347 348 351 348 343 343 345 346 347 346 345 344 344 345 347 344 346 343 341 343 344 341 341 343 342 344 346 344 338 339 343 344 345 347 346 342 340 340 342
349 348 346 346 347 348 347 341 337 344 345 346 347 347 345 342 341 340 341 341 341 342 343 345 342 343 344 345 345 344 344 343 338 340 344 342 343 345 346 344 337 340 340
347 347 346 346 344 346 342 339 339 344 345 346 347 347 345 343 341 339 339 341 343 343 342 342 343 344 344 345 344 344 342 336 333 336 341 338 344 342 341 342 340 342 340
346 347 348 347 343 343 339 343 345 347 348 348 348 347 346 344 344 344 345 345 345 343 343 343 344 344 344 344 345 343 342 335 332 334 336 335 337 339 340 344 334 340 336
344 346 348 347 343 342 340 344 346 346 348 348 347 346 346 346 345 345 345 344 345 344 343 344 345 345 343 343 344 343 342 334 331 331 330 332 336 338 338 335 337 335 335
345 345 347 348 346 342 347 348 347 348 349 348 347 345 346 347 346 344 343 344 344 346 345 344 346 345 343 344 343 343 339 337 335 334 338 334 335 336 336 335 334 334 334
346 344 347 347 347 344 349 348 346 347 349 348 347 345 348 345 345 345 345 346 345 346 342 344 345 344 344 344 343 343 343 342 341 341 341 342 341 340 340 336 336 336 336
346 345 346 348 349 347 350 348 348 347 347 348 346 347 348 346 345 346 345 346 346 346 341 343 345 344 344 344 344 346 344 344 344 343 343 344 344 344 343 342 339 340 339
345 345 345 348 348 349 349 347 348 348 348 348 346 347 345 349 347 344 347 346 345 346 344 342 342 343 344 344 344 344 343 342 344 344 343 343 343 343 343 343 341 341 342
345 345 346 347 346 345 349 347 345 348 347 348 347 347 348 349 349 346 346 347 346 346 344 343 343 345 343 343 342 341 336 337 340 343 343 342 342 342 342 342 342 341 341
344 345 347 347 346 345 346 347 346 349 348 349 348 349 349 349 348 347 346 346 347 345 343 342 342 341 341 341 341 342 338 335 339 341 341 341 341 341 342 341 342 342 341
343 345 346 345 345 344 344 346 346 348 349 350 349 349 350 351 351 349 349 346 347 344 345 344 343 343 340 340 340 340 342 341 335 335 339 340 341 341 340 341 341 341 341
342 343 343 343 344 343 342 346 344 347 348 347 349 350 349 351 351 351 350 348 348 346 344 346 347 346 345 342 344 346 342 341 340 338 336 339 341 341 340 341 342 341 341
342 343 344 344 343 343 344 347 344 345 348 348 347 349 350 349 351 351 350 350 350 346 348 346 345 345 346 346 347 347 345 342 340 342 337 339 340 342 341 340 341 341 341
Wind_Speed
20 19 16 15 16 15 15 15 14 15 16 15 14 14 13 13 13 12 13 13 13 13 13 14 14 15 15 16 17 18 18 18 18 17 18 18 18 17 18 18 17 18 18
28 21 17 16 16 16 14 15 14 15 15 13 13 13 12 13 13 12 12 12 13 13 13 14 14 15 15 17 18 17 18 18 18 18 18 17 16 17 17 17 16 17 17
27 22 19 17 16 17 16 15 14 14 14 12 13 12 13 13 12 12 12 11 13 12 12 13 14 14 16 16 17 17 17 16 17 17 18 18 17 16 16 16 16 16 16
27 22 20 18 16 17 17 16 14 13 13 12 13 12 12 11 11 11 12 11 11 12 13 13 13 13 14 14 15 16 17 16 16 18 19 16 15 14 15 16 15 15 15
27 23 20 19 17 18 18 16 14 13 12 12 12 12 12 12 12 11 12 12 12 12 13 14 13 13 14 14 13 12 13 14 15 16 17 16 16 15 15 14 13 14 15
26 24 20 18 18 18 17 16 15 14 13 13 12 11 11 12 12 12 12 11 12 12 13 12 12 13 13 15 15 17 16 14 15 16 17 16 15 13 13 14 13 13 13
27 22 20 18 18 18 17 16 15 14 13 13 12 12 11 11 12 12 12 11 11 11 12 12 11 14 16 15 12 13 12 12 14 17 17 15 14 13 13 12 13 13 12
27 23 19 17 17 18 17 16 15 14 13 13 12 11 11 11 11 12 11 11 11 11 11 12 11 14 13 12 14 13 11 11 15 15 15 14 13 13 12 11 11 12 10
26 23 20 18 16 16 16 15 15 14 13 12 12 10 11 11 12 12 12 12 12 12 11 11 14 14 15 13 13 11 9 11 14 14 14 14 13 11 11 11 11 11 10
26 23 21 18 17 15 15 14 14 14 13 12 11 10 11 12 12 12 13 12 12 11 12 13 14 13 13 12 12 8 8 11 11 13 12 12 11 11 9 10 9 9 8
24 23 22 20 19 18 17 15 14 13 13 12 11 11 12 13 12 12 12 11 11 11 12 14 14 12 12 12 8 6 6 7 9 11 11 11 9 9 8 9 8 7 8
24 24 22 21 20 19 18 16 16 16 15 15 14 13 13 11 12 11 10 9 10 12 13 13 12 11 11 8 6 5 5 6 8 10 11 10 8 7 7 6 7 5 5
30 26 23 22 21 21 20 19 19 19 17 16 14 12 12 11 11 11 12 11 10 12 14 12 11 10 8 5 6 6 6 5 8 10 9 7 8 7 6 6 4 5 4
30 27 25 23 23 21 21 20 21 19 17 16 13 10 12 12 11 11 10 11 10 9 9 8 10 11 5 5 7 8 7 7 9 9 10 7 7 6 5 4 4 4 3
27 28 28 25 24 22 22 22 21 18 15 14 13 11 12 11 12 11 11 9 8 6 7 8 8 7 5 6 9 11 8 7 8 8 9 6 7 5 5 4 3 2 2
27 29 28 26 24 24 24 24 21 16 13 13 13 14 12 7 12 12 11 9 7 7 6 4 2 3 4 4 12 11 9 6 8 7 7 7 6 5 4 4 3 3 2
30 30 29 28 25 25 24 21 18 16 13 12 14 14 14 11 13 10 11 9 8 6 6 5 3 5 3 6 12 11 10 8 8 7 6 6 5 4 3 4 3 3 3
30 32 30 27 26 25 23 19 18 17 16 14 15 14 12 14 11 12 11 10 7 6 5 4 6 7 5 9 12 10 9 7 7 7 5 5 4 3 3 3 3 3 4
37 34 32 29 28 27 22 17 18 21 19 15 16 14 12 12 13 12 12 9 7 6 6 5 8 10 9 9 10 10 8 7 6 7 6 5 4 5 4 4 4 4 5
38 38 37 33 29 27 22 17 16 20 23 19 19 15 12 11 10 14 12 11 8 8 7 7 8 11 8 10 7 7 9 8 8 9 7 7 6 6 6 6 6 6 6
33 37 38 35 32 30 23 21 15 14 19 22 19 14 14 12 9 11 14 10 9 10 9 9 6 7 7 7 7 9 8 10 13 14 12 10 10 9 10 9 8 8 7
38 40 40 37 36 34 27 21 18 16 18 20 20 17 13 12 12 12 13 11 10 11 12 11 8 8 8 11 5 2 2 4 11 15 15 15 14 13 13 12 11 9 9
32 35 42 41 37 33 28 22 17 17 18 21 20 18 15 13 13 13 12 11 7 10 10 9 6 7 7 13 8 2 1 2 3 3 10 17 17 15 15 14 13 10 10
36 41 44 42 39 34 31 27 22 20 18 16 19 20 16 14 13 13 12 12 9 12 10 8 7 7 6 8 5 4 2 1 1 3 3 6 9 14 14 13 13 11 11
39 39 43 43 40 36 34 31 27 22 20 18 21 21 16 17 14 14 14 14 12 11 12 10 9 8 6 6 3 1 1 1 2 1 2 3 7 10 9 10 12 12 12
37 38 40 43 43 37 37 33 30 27 22 21 19 22 20 18 18 16 15 15 15 14 12 12 11 9 8 6 3 2 2 1 1 1 1 2 4 5 7 11 13 14 13
Wind_Direction
166 156 146 141 139 135 132 129 121 116 113 107 104 107 105 109 110 111 116 112 109 110 110 111 108 107 107 107 109 106 105 104 101 104 100 98 99 100 98 98 97 96 99
158 156 149 148 146 145 137 130 126 121 119 113 115 113 99 106 110 109 114 123 117 117 118 115 115 114 110 110 107 104 102 103 102 109 101 98 99 97 99 100 98 98 97
155 154 151 152 151 151 147 139 130 126 122 125 118 110 103 108 112 116 113 114 126 122 113 115 116 116 113 112 113 108 108 106 102 103 102 101 99 97 104 100 95 99 95
155 154 153 152 148 152 151 145 139 133 132 128 119 116 112 107 109 113 111 115 121 127 125 115 115 113 114 115 116 114 111 106 110 111 107 106 104 104 102 100 97 96 98
155 156 153 148 148 147 148 147 145 144 139 132 126 123 122 115 115 109 112 114 114 111 113 117 118 119 115 114 118 124 121 111 114 115 116 111 107 107 105 100 91 93 91
155 156 153 150 146 142 146 150 152 147 143 134 133 133 127 125 123 115 111 111 107 114 112 115 119 117 113 114 110 111 119 116 117 118 116 115 104 102 100 101 90 94 99
153 157 156 155 150 147 150 152 152 150 147 140 137 136 132 127 128 122 112 107 107 100 106 115 119 118 113 116 118 116 122 123 125 123 119 118 117 112 109 107 100 100 98
154 155 154 153 152 156 156 156 150 151 144 142 138 142 138 133 130 121 114 115 112 115 117 119 117 113 107 105 131 129 128 130 132 126 123 116 114 113 112 102 103 98 91
152 153 153 155 153 153 151 148 151 148 145 143 143 140 134 136 135 126 123 117 112 115 121 119 121 121 115 114 120 130 125 129 131 126 125 123 118 114 105 100 101 93 89
155 156 153 154 154 151 149 149 150 148 146 143 135 137 136 139 135 133 129 123 116 119 117 124 128 127 117 117 115 113 120 133 133 132 124 117 110 108 107 104 97 99 91
159 158 158 157 154 154 149 147 150 147 144 141 137 134 141 140 136 139 127 126 120 121 121 129 132 130 123 126 126 137 153 134 136 136 128 120 119 113 107 111 113 101 96
161 162 162 162 159 156 152 156 153 149 149 144 141 138 134 137 141 135 128 126 123 119 123 123 134 136 135 143 145 170 167 148 152 146 135 133 133 124 124 113 108 117 120
165 163 166 165 162 162 161 162 156 152 152 145 144 137 136 140 146 150 141 142 134 132 127 136 139 151 160 185 183 202 191 183 170 157 143 146 137 143 137 126 148 128 122
170 170 167 168 167 168 165 163 159 160 162 159 164 160 151 145 151 154 152 146 137 137 137 137 137 147 166 180 192 185 197 189 178 165 153 170 156 152 148 162 146 147 145
172 173 171 171 172 171 170 165 168 169 169 166 164 159 154 151 155 154 155 156 150 139 151 135 130 128 132 176 181 172 176 185 174 170 166 165 163 172 170 174 174 172 174
177 176 175 175 175 174 174 172 176 179 185 189 193 186 182 177 181 183 178 181 188 170 170 166 154 125 120 142 180 186 186 184 174 166 170 169 181 195 191 198 209 213 237
181 177 179 176 178 180 180 182 183 188 196 193 193 186 194 191 187 185 192 205 195 183 187 193 183 175 183 163 167 183 198 194 182 170 174 171 176 207 219 230 238 253 260
179 182 181 181 182 184 186 192 193 201 206 209 200 194 198 183 186 190 185 178 180 175 189 206 207 210 172 188 179 191 195 196 196 186 193 206 208 223 238 246 260 279 278
184 182 185 186 188 189 192 195 204 207 208 209 205 198 185 189 190 182 185 188 192 181 196 218 180 190 181 189 189 202 208 212 221 219 222 242 244 245 261 262 266 277 296
188 186 186 190 190 194 193 202 207 214 208 214 209 203 194 184 185 196 200 185 188 195 200 208 200 198 204 212 207 216 224 238 249 249 249 253 265 264 263 269 274 282 286
185 186 190 193 192 187 181 177 182 189 205 206 208 211 211 196 187 171 171 178 178 179 196 191 180 197 205 196 209 225 256 256 254 255 257 260 267 269 272 274 279 280 284
183 186 186 188 187 187 185 180 187 195 199 200 203 209 212 197 195 188 188 180 174 162 165 186 182 182 198 201 218 178 335 282 256 249 249 256 265 269 269 270 273 283 282
181 186 185 190 192 192 191 184 179 186 200 203 203 207 214 206 206 201 203 201 190 186 174 174 176 172 158 189 232 231 56 252 324 258 252 254 259 264 267 266 267 275 284
187 191 191 193 196 197 197 197 195 190 187 201 203 206 211 212 212 209 212 204 210 196 192 179 175 178 185 188 210 230 274 340 156 338 269 243 248 262 269 262 266 276 281
185 192 193 195 198 199 199 200 201 203 207 211 213 214 219 210 213 213 209 211 205 200 206 197 194 185 197 209 233 313 202 291 280 147 294 310 258 264 269 279 276 282 283
187 190 191 194 198 199 197 203 207 204 209 216 221 220 221 214 216 217 214 221 221 216 210 202 203 201 210 213 228 289 248 283 331 296 307 303 278 294 308 283 274 275 286